This is the latest recevied weather packets stored in our database for station/object WX5RP. If no packets are shown the sender has not sent any weather packets the latest 10 day(s).
| Time | Temp. | Humidity | Pressure | Rain* | Wind** | Luminosity | Snow |
|---|---|---|---|---|---|---|---|
| 1777479322 | 8.89° C | 57% | 1021.4 hPa | 0 mm | - | 614 W/m² | - |
| 1777478716 | 7.78° C | 58% | 1021.8 hPa | 0 mm | - | 583 W/m² | - |
| 1777478115 | 6.67° C | 60% | 1022.1 hPa | 0 mm | - | 553 W/m² | - |
| 1777477515 | 6.11° C | 60% | 1022.1 hPa | 0 mm | - | 523 W/m² | - |
| 1777476919 | 6.11° C | 60% | 1022.4 hPa | 0 mm | - | 487 W/m² | - |
| 1777476317 | 5° C | 63% | 1022.3 hPa | 0 mm | - | 451 W/m² | - |
| 1777475715 | 4.44° C | 65% | 1022.3 hPa | 0 mm | - | 417 W/m² | - |
| 1777475117 | 3.89° C | 70% | 1021.8 hPa | 0 mm | - | 381 W/m² | - |
| 1777474517 | 2.78° C | 76% | 1022.1 hPa | 0 mm | - | 344 W/m² | - |
| 1777473917 | 2.22° C | 78% | 1022 hPa | 0 mm | - | 302 W/m² | - |
| 1777473317 | 1.11° C | 79% | 1022.2 hPa | 0 mm | - | 268 W/m² | - |
| 1777472717 | 0.56° C | 81% | 1022.6 hPa | 0 mm | - | 227 W/m² | - |
| 1777472117 | -0.56° C | 81% | 1022.2 hPa | 0 mm | - | 183 W/m² | - |
| 1777471516 | -1.67° C | 82% | 1021.4 hPa | 0 mm | - | 146 W/m² | - |
| 1777470917 | -2.22° C | 82% | 1021.3 hPa | 0 mm | - | 106 W/m² | - |
| 1777470317 | -2.78° C | 82% | 1021.2 hPa | 0 mm | - | 92 W/m² | - |
| 1777469717 | -2.78° C | 82% | 1021.2 hPa | 0 mm | - | 62 W/m² | - |
| 1777469116 | -3.33° C | 82% | 1021.2 hPa | 0 mm | - | 31 W/m² | - |
| 1777468517 | -3.89° C | 82% | 1021.2 hPa | 0 mm | - | 14 W/m² | - |
| 1777467917 | -4.44° C | 82% | 1021.2 hPa | 0 mm | - | 6 W/m² | - |
| 1777467316 | -4.44° C | 81% | 1021.2 hPa | 0 mm | - | 0 W/m² | - |
| 1777466717 | -5° C | 80% | 1021.1 hPa | 0 mm | - | 0 W/m² | - |
| 1777466116 | -4.44° C | 79% | 1021 hPa | 0 mm | - | 0 W/m² | - |
| 1777465517 | -3.33° C | 79% | 1021 hPa | 0 mm | - | 0 W/m² | - |
| 1777464917 | -2.78° C | 78% | 1021.3 hPa | 0 mm | - | 0 W/m² | - |
* Rain latest hour (hover to see other rain measurements)
** Current wind speed in m/s (hover to see current wind gust speed)